Weather in Lukla

Nepal     27°41′04″N   86°43′52″E
temp.,
°C
wind,
m/s
gust,
m/s
humid.,
%
clouds,
%
prec.,
mm/h
press.,
hPa
HPBL,
m
15 may, sat
sat1523:45−4nne33684 0.1 101933
02:45−4nne44550 0.0 101837
05:45−3n54460 0.0 101959
08:45+1sw33430 0.0 1018835
11:45+4ssw545557 0.1 10161411
14:45+2ssw448592 0.7 1016656
17:450sw229398 1.5 1017359
20:450sw11815 0.1 1020206
16 may, sun
sun1623:45−2n446689 0.1 102339
02:45−3n555827 0.0 102144
05:45−2n654387 0.0 102157
08:45+4sw3233100 0.0 1019765
11:45+5ssw535086 0.0 10181172
14:45+3ssw338697 0.3 1018598
17:45+2sw229396 0.8 1019286
20:45+1nw118590 0.1 1021269
17 may, mon
mon1723:450n327699 0.1 102224
02:45−1nnw337197 0.0 102126
05:450n44595 0.0 102146
08:45+5ssw32495 0.0 1020723
11:45+7ssw5360100 0.0 10181161
14:45+4sw438996 0.4 1018573
17:45+3sw229285 0.7 1018358
20:45+3nw227767 0.1 102039
18 may, tue
tue1823:45+2nnw337073 0.1 102023
02:45+1nnw43715 0.0 101925
05:45+1nnw43662 0.0 101949
08:45+6sw335416 0.0 1017984
11:45+7ssw546785 0.1 10161054
14:45+5sw448493 0.7 1016713
17:45+4wsw338780 1.3 1017476
20:45+3w238881 0.3 1019324
19 may, wed
wed1923:45+3nw229082 0.7 1018284
02:45+3wnw229393 0.2 1016293
05:45+3wnw239485 0.6 1016246
08:45+5wsw337979 0.1 1016705
11:45+7sw547692 0.3 1014846
14:45+5sw439193 0.8 1013464
17:45+5wsw228773 1.6 1014405
20:45+4w2281100 0.1 1016117